Estación de Huelquen

Ultimos registro cada 15 minutos 51
Estación Fecha / Hora Temperatura Humedad Lluvia Velocidad Dirección Radiación Presion
51 Huelquen 07-05-2026 12:30 16,3 63 0 0 121 527 1024,3
50 Huelquen 07-05-2026 12:15 16,1 63 0 0,9 181 527 1024,4
49 Huelquen 07-05-2026 12:00 15,8 66 0 0,4 248 519 1024,8
48 Huelquen 07-05-2026 11:45 15,4 68 0 1,8 219 510 1024,7
47 Huelquen 07-05-2026 11:30 14,9 69 0 0 173 496 1024,7
46 Huelquen 07-05-2026 11:15 14,7 73 0 0 186 482 1024,9
45 Huelquen 07-05-2026 11:00 14,1 76 0 0 180 468 1025,2
44 Huelquen 07-05-2026 10:45 13,6 77 0 0 180 429 1025,5
43 Huelquen 07-05-2026 10:30 13,1 82 0 0 180 418 1025,6
42 Huelquen 07-05-2026 10:15 12,3 87 0 0 216 394 1025,6
41 Huelquen 07-05-2026 10:00 11,6 88 0 0 180 120 1025,7
40 Huelquen 07-05-2026 09:45 11 91 0 0 248 369 1025,6
39 Huelquen 07-05-2026 09:30 10,6 91 0 0 203 151 1025,5
38 Huelquen 07-05-2026 09:15 10,4 91 0 0 222 113 1025,4
37 Huelquen 07-05-2026 09:00 10,4 92 0 0 190 107 1025,4
36 Huelquen 07-05-2026 08:45 10,3 92 0 0 179 84 1025
35 Huelquen 07-05-2026 08:30 10,3 92 0 0 120 63 1024,7
34 Huelquen 07-05-2026 08:15 10,2 92 0 0 120 44 1024,7
33 Huelquen 07-05-2026 08:00 10,1 92 0 0 120 26 1024,6
32 Huelquen 07-05-2026 07:45 9,9 92 0 0 120 14 1024,3
31 Huelquen 07-05-2026 07:30 9,9 92 0 0 120 0 1024,1
30 Huelquen 07-05-2026 07:15 9,8 92 0 0 148 0 1024,2
29 Huelquen 07-05-2026 07:00 9,9 92 0 0 136 0 1024,1
28 Huelquen 07-05-2026 06:45 10,1 92 0 0 127 0 1024
27 Huelquen 07-05-2026 06:30 10,1 92 0 0 119 0 1023,5
26 Huelquen 07-05-2026 06:15 10,2 92 0 0 215 0 1023,5
25 Huelquen 07-05-2026 06:00 10,2 92 0 0 215 0 1023,4
24 Huelquen 07-05-2026 05:45 10,4 92 0 0 215 0 1023,2
23 Huelquen 07-05-2026 05:30 10,7 92 0 0 215 0 1023
22 Huelquen 07-05-2026 05:15 10,7 92 0 0 182 0 1022,8
21 Huelquen 07-05-2026 05:00 10,8 92 0 0 182 0 1022,5
20 Huelquen 07-05-2026 04:45 10,8 92 0 0 182 0 1022,6
19 Huelquen 07-05-2026 04:30 10,8 92 0 0 181 0 1022,5
18 Huelquen 07-05-2026 04:15 10,7 92 0 0 181 0 1022,6
17 Huelquen 07-05-2026 04:00 10,8 92 0 0 182 0 1022,4
16 Huelquen 07-05-2026 03:45 10,9 92 0 0 183 0 1022,3
15 Huelquen 07-05-2026 03:30 10,9 92 0 0 183 0 1022,5
14 Huelquen 07-05-2026 03:15 10,9 92 0 0 183 0 1022,5
13 Huelquen 07-05-2026 03:00 10,9 92 0 0 183 0 1022,5
12 Huelquen 07-05-2026 02:45 10,9 92 0 0 183 0 1022,4
11 Huelquen 07-05-2026 02:30 10,9 91 0 0 183 0 1022,4
10 Huelquen 07-05-2026 02:15 11 91 0 0 183 0 1022,4
9 Huelquen 07-05-2026 02:00 11,1 91 0 0 180 0 1022,5
8 Huelquen 07-05-2026 01:45 11,2 91 0 0 311 0 1022,1
7 Huelquen 07-05-2026 01:30 11,2 91 0 0 251 0 1022,2
6 Huelquen 07-05-2026 01:15 11,4 91 0 0 274 0 1022,4
5 Huelquen 07-05-2026 01:00 11,6 91 0 0 168 0 1022,2
4 Huelquen 07-05-2026 00:45 11,7 91 0 0 333 0 1022
3 Huelquen 07-05-2026 00:30 11,7 91 0 0 333 0 1021,9
2 Huelquen 07-05-2026 00:15 11,8 91 0 0 293 0 1021,9
1 Huelquen 07-05-2026 00:00 11,8 91 0 0 293 0 1021,8